sat.trackr.live / text

‹ back to catalog

STARLINK-4621

NORAD 53676 · 2022-105AE

PAYLOAD ACTIVE UNKNOWN

§ Identity

Operator
Country
US
Launch date
2022-08-31
Launch site
AFWTR
Launch vehicle
Mass (kg)
RCS (m²)

Purposes: comms

External: N2YO · Heavens-Above · Gunter

§ Orbital elements

Epoch: 2026-05-25T02:52:58.984032Z

Period
95.64 min
Inclination
97.4505°
Eccentricity
0.0002433
Mean motion
15.05657658 rev/d
Perigee alt
547.8 km
Apogee alt
551.2 km
Semi-major
6,927.6 km
B*
-6.1607e-5
RAAN
25.1043°
Arg perigee
71.6262°
Mean anomaly
288.5230°
Rev number
20,473

§ Raw data

STARLINK-46211 53676U 22105AE  26145.12012713 -.00000948  00000+0 -61607-4 0  99982 53676  97.4505  25.1043 0002433  71.6262 288.5230 15.05657658204732

JSON: /api/v1/satellites/53676 · /tle

For live sub-satellite position, see the globe view (requires WebGL).

§ Visibility from observer

Set your observer location to see the next 7 days of passes ≥ 10°. The values pass through the URL so the page stays shareable.

No JS? Fill the form by hand. The geolocation button needs JavaScript.

§ Radio — SatNOGS DB

ModeDescriptionDownlinkUplink
CW Ku-band 11325 MHz beacon 11.325 GHz
CW Ku-band 11575 MHz beacon 11.575 GHz
CW Ku-band 11950 MHz beacon 11.950 GHz
CW Ku-band 12450 MHz beacon 12.450 GHz

4 transmitters · refreshed weekly from db.satnogs.org